Volver al catálogo

STARLINK-11239

ActivoComunicacionesVLEO
NORAD 60924·PAYLOAD·🇺🇸 United States

Lanzado Aug 31, 2024 desde Vandenberg Space Force Base

Loading…

Próximos Pases (próximas 24 horas)

TLE

ActualizadoSource: CelesTrak SupGP

Época: Sep 14, 2026, 22:51 UTC

1 60924C 24155A   26257.95256944 -.00048511  00000+0 -39958-3 0  2578
2 60924  53.1561 128.6181 0001245  90.8137 260.5188 15.69734814    10

Sigue STARLINK-11239 en tiempo real con AllMySat

Download on the App Store